{"data":{"norad_id":60052,"intl_designator":"2024-112Q","name":"STARLINK-31775","alt_names":[],"object_type":"PAYLOAD","status":"ACTIVE","operator":null,"country":"US","launch_date":"2024-06-08","launch_site_code":"AFWTR","launch_vehicle":null,"mission":null,"orbit_class":"UNKNOWN","rcs_meters":null,"size_class":null,"mass_kg":null,"dimensions":null,"purposes":["comms"],"wikipedia_slug":null,"has_3d_model":false,"image_url":null,"decayed_at":null,"tle_current":{"epoch":"2026-05-25T02:39:21.138912Z","epoch_age_seconds":58784,"freshness":"FRESH","line1":"1 60052U 24112Q   26145.11066133  .00003100  00000+0  11681-3 0  9995","line2":"2 60052  53.1600  83.2659 0001174 101.5376 258.5756 15.30185889110298","mean_motion":15.30185889,"eccentricity":0.0001174,"inclination_deg":53.16,"raan_deg":83.2659,"arg_perigee_deg":101.5376,"mean_anomaly_deg":258.5756,"bstar":0.00011681,"rev_number":11029,"period_min":94.106213522924,"perigee_km":474.45261416619,"apogee_km":476.06179112497,"semimajor_km":6853.3942026456,"source":"CELESTRAK","updated_at":"2026-05-25T13:38:19.155013Z"}}}